カタログに戻る

NOAA 16 DEB

運用中SSO
NORAD 41408·DEBRIS·🇺🇸 United States

打ち上げ Sep 21, 2000 から Vandenberg Space Force Base

Loading…

次のパス (今後24時間)

TLE

最新Source: Space-Track

元期: Sep 13, 2026, 05:23 UTC

1 41408U 00055KM  26256.22486809  .00002675  00000-0  95828-3 0  9992
2 41408  98.7247 354.8359 0008569 352.3474   7.7579 14.34812423547866

AllMySatでNOAA 16 DEBをリアルタイム追跡

Download on the App Store